[[{"header":{"parameterUnit":"m.s-1","parameterCategory":1,"la1":30.2991,"la2":30.254,"lo1":-89.0895,"lo2":-89.0444,"dy":0.0017,"dx":0.0017,"nx":28,"ny":28,"refTime":"2024-04-12T09:00:00:Z","depth":0,"parameterNumber":2,"parameterNumberName":"U-component_of_WINDS"},"data":[0,0,0,0,0,0,0,0,0,0,0,0,0,0,0,0,0,0,0,0,0,0,0,0,0,0,0,0,0,0,0,0,0,0,0,0,0,0,0,0,0,0,0,0,0,0,0,0,0,0,0,0,0,0,0,0,0,0,1.5589,1.5589,0,1.5629,1.5629,1.563,1.5611,1.561,1.5609,1.5609,1.5648,1.565,1.5652,0,0,0,0,0,0,0,0,0,0,0,0,0,1.5493,1.5495,1.5589,1.5589,1.559,1.5629,1.5629,1.563,1.5612,1.561,1.5609,1.5608,1.5647,1.565,1.5652,0,0,0,0,0,0,0,0,0,0,0,0,0,1.5534,1.5496,1.5589,1.5585,1.5585,1.5629,1.5629,1.563,1.5612,1.561,1.5609,1.5608,1.5647,1.5649,1.5652,1.5701,0,0,1.5661,1.5663,0,0,0,0,0,0,0,0,1.5532,1.5538,1.5585,1.5586,1.5586,1.5614,1.561,1.5654,1.5612,1.5602,1.5608,1.5607,1.5638,1.5641,1.5652,1.5702,1.5704,1.5662,1.5664,1.5665,1.5666,0,0,0,0,0,0,0,1.5529,1.5536,1.5604,1.5586,1.5586,1.5581,1.5585,1.5618,1.5628,1.5603,1.5601,1.5606,1.5637,1.5649,1.5653,1.5705,1.5662,1.5664,1.5666,1.5667,1.5793,1.5795,0,0,0,0,0,0,1.5527,1.5534,1.5603,1.5606,1.5555,1.5584,1.5588,1.5606,1.5627,1.5629,1.5608,1.5605,1.5645,1.5649,1.5654,1.5709,1.5665,1.5668,1.5669,1.5792,1.5793,1.5795,0,0,0,0,0,0,1.5525,1.5533,1.5602,1.5569,1.5578,1.5587,1.5607,1.5608,1.5619,1.5631,1.5632,1.5618,1.5644,1.565,1.5688,1.571,1.5669,1.5672,1.579,1.5792,1.5794,1.5822,0,0,0,0,0,0,1.5522,1.5532,1.5552,1.557,1.5579,1.5636,1.5609,1.561,1.5625,1.5622,1.5641,1.5643,1.5643,1.5684,1.5691,1.5714,1.5674,1.5788,1.5791,1.5794,1.5819,1.5825,1.583,0,0,0,0,0,1.5519,1.5558,1.5553,1.5561,1.5604,1.5638,1.5643,1.5643,1.5627,1.5645,1.5652,1.5642,1.5707,1.5688,1.5696,1.572,1.5786,1.579,1.5793,1.5816,1.5823,1.5829,0,0,0,0,0,0,1.5542,1.5561,1.5555,1.5602,1.5618,1.5635,1.5658,1.5651,1.5672,1.5669,1.5668,1.5672,1.5711,1.572,1.5698,1.5766,1.5744,1.5749,1.5759,1.5766,1.5771,1.5767,1.5676,0,0,0,0,0,1.5553,1.558,1.5594,1.5634,1.5643,1.5649,1.5664,1.5662,1.5679,1.5686,1.5696,1.5712,1.5736,1.5752,1.5774,1.582,1.5823,1.584,1.5846,1.585,1.5854,1.5876,1.5883,1.5807,1.5807,1.5807,0,0,1.5575,1.5589,1.5606,1.5639,1.5652,1.5678,1.5655,1.5685,1.5703,1.569,1.5726,1.5735,1.5752,1.5794,1.5813,1.5802,1.5876,1.5855,1.5858,1.586,1.588,1.5887,1.5894,1.5809,1.5809,1.5808,0,0,1.5629,1.5643,1.5676,1.5689,1.5708,1.5712,1.572,1.5737,1.5741,1.5778,1.5768,1.579,1.5832,1.5844,1.5856,1.5912,1.5902,1.5919,1.5947,1.5968,1.5974,1.5979,1.5997,1.6003,1.5924,1.5924,1.5924,0,1.5654,1.5694,1.5694,1.5723,1.5737,1.5727,1.5759,1.5771,1.5797,1.5806,1.5794,1.5844,1.5856,1.5899,1.5912,1.5923,1.593,1.5916,1.5974,1.5979,1.5984,1.6,1.6007,1.5925,1.5925,1.5925,1.5925,0,1.5722,1.5749,1.5774,1.5798,1.5815,1.5846,1.5849,1.5866,1.5863,1.5867,1.5903,1.5917,1.594,1.5951,1.5949,1.5993,1.5985,1.5974,1.5951,1.5993,1.6008,1.6014,1.5928,1.5927,1.5927,1.5926,0,0,1.5791,1.5814,1.5823,1.5832,1.5852,1.5873,1.5902,1.5926,1.5939,1.5957,1.598,1.6015,1.6003,1.6016,1.6015,1.6034,1.6074,1.602,1.602,1.6027,1.612,1.6127,1.6134,1.6069,1.607,1.6071,1.6118,0,1.5844,1.5895,1.5895,1.5943,1.5966,1.5956,1.5981,1.5995,1.6,1.602,1.6025,1.6049,1.6034,1.6041,1.606,1.6065,1.6092,1.6062,1.6088,1.6089,1.6081,1.6143,1.6151,1.6194,1.6124,1.6125,1.6126,0,1.5912,1.5931,1.598,1.5994,1.6004,1.6027,1.6047,1.6067,1.6082,1.6084,1.6098,1.6093,1.6121,1.6099,1.6137,1.6116,1.6127,1.6131,1.6133,1.6133,1.6108,1.6143,1.6209,1.6214,1.6136,1.6135,1.6134,0,1.5954,1.5992,1.6026,1.6035,1.6053,1.6068,1.6076,1.609,1.6103,1.6121,1.6129,1.6149,1.616,1.6176,1.6176,1.616,1.6213,1.6192,1.6213,1.6213,1.6223,1.6222,1.6289,1.6234,1.6234,1.6234,1.6234,0,1.6011,1.6041,1.6044,1.6065,1.6097,1.6097,1.6128,1.6135,1.6147,1.6167,1.616,1.6179,1.618,1.6199,1.6199,1.6228,1.6234,1.6235,1.6234,1.6234,1.6234,1.6239,1.6235,1.6236,1.6235,1.6235,1.6235,0,1.6063,1.6067,1.6102,1.6115,1.6119,1.6142,1.6153,1.6172,1.6176,1.6201,1.6207,1.6213,1.6235,1.6237,1.6263,1.6263,1.6298,1.6295,1.6292,1.6291,1.6311,1.6308,1.6383,1.6391,1.6333,1.6334,1.6334,0,1.6098,1.612,1.6136,1.6149,1.6157,1.6179,1.6192,1.6192,1.6206,1.6223,1.6239,1.626,1.6277,1.6312,1.6318,1.6337,1.6333,1.6358,1.6336,1.6334,1.633,1.6328,1.6329,1.6361,1.6362,1.6363,1.6363,0,1.6159,1.6159,1.6178,1.6198,1.6213,1.6229,1.6243,1.6254,1.6255,1.6271,1.6293,1.6306,1.6331,1.6352,1.637,1.6377,1.6369,1.637,1.6376,1.6375,1.6371,1.637,1.6301,1.6368,1.6368,1.6367,1.6367,1.6367,1.6201,1.6219,1.6232,1.6253,1.6264,1.6277,1.6294,1.63,1.6319,1.6339,1.6338,1.6362,1.6374,1.6398,1.6406,1.6424,1.6415,1.6424,1.6426,1.6427,1.6428,1.637,1.6428,1.6427,1.6427,1.6427,1.6427,0,1.6259,1.6267,1.6286,1.6306,1.6322,1.6314,1.6329,1.6342,1.6363,1.6376,1.6392,1.6416,1.6435,1.6442,1.6461,1.6473,1.647,1.6478,1.6476,1.6477,1.6436,1.6428,1.648,1.648,1.648,1.648,1.648,1.648,1.6291,1.6321,1.6322,1.6356,1.6364,1.6387,1.6395,1.6407,1.6416,1.6443,1.6459,1.6464,1.6473,1.6492,1.6508,1.651,1.6516,1.6525,1.6524,1.6486,1.648,1.6475,1.6467,1.6526,1.6527,1.6563,1.6564,1.6564]},{"header":{"parameterUnit":"m.s-1","parameterCategory":1,"la1":30.2991,"la2":30.254,"lo1":-89.0895,"lo2":-89.0444,"dy":0.0017,"dx":0.0017,"nx":28,"ny":28,"refTime":"2024-04-12T09:00:00:Z","depth":0,"parameterNumber":3,"parameterNumberName":"V-component_of_WINDS"},"data":[0,0,0,0,0,0,0,0,0,0,0,0,0,0,0,0,0,0,0,0,0,0,0,0,0,0,0,0,0,0,0,0,0,0,0,0,0,0,0,0,0,0,0,0,0,0,0,0,0,0,0,0,0,0,0,0,0,0,1.956,1.956,0,1.9628,1.9629,1.9629,1.9614,1.9613,1.9612,1.9611,1.9678,1.9681,1.9684,0,0,0,0,0,0,0,0,0,0,0,0,0,1.9411,1.9414,1.9559,1.956,1.9561,1.9628,1.9629,1.963,1.9615,1.9613,1.9611,1.961,1.9677,1.968,1.9684,0,0,0,0,0,0,0,0,0,0,0,0,0,1.9477,1.9415,1.9559,1.9562,1.9563,1.9628,1.9629,1.963,1.9615,1.9613,1.9611,1.9609,1.9676,1.968,1.9685,1.9751,0,0,1.9698,1.97,0,0,0,0,0,0,0,0,1.9473,1.9482,1.956,1.9562,1.9563,1.9611,1.9601,1.967,1.9615,1.9595,1.9611,1.9608,1.9657,1.9663,1.968,1.9754,1.9757,1.9699,1.9701,1.9703,1.9705,0,0,0,0,0,0,0,1.9469,1.9479,1.9586,1.9562,1.9563,1.9558,1.9565,1.9614,1.9636,1.9597,1.9596,1.9604,1.9657,1.9676,1.9681,1.9758,1.9699,1.9702,1.9705,1.9707,1.9886,1.9888,0,0,0,0,0,0,1.9464,1.9476,1.9584,1.9588,1.9512,1.9562,1.957,1.9597,1.9635,1.9639,1.9606,1.9603,1.9669,1.9676,1.9684,1.9762,1.9703,1.9707,1.971,1.9884,1.9886,1.9889,0,0,0,0,0,0,1.9461,1.9474,1.9582,1.9532,1.9545,1.9567,1.9597,1.96,1.9618,1.9642,1.9646,1.9621,1.9668,1.9677,1.9734,1.9764,1.9709,1.9714,1.9882,1.9885,1.9888,1.992,0,0,0,0,0,0,1.9456,1.9473,1.9499,1.9533,1.9548,1.9632,1.9599,1.9602,1.9626,1.9623,1.9657,1.9661,1.9667,1.9727,1.9738,1.9769,1.9717,1.9879,1.9883,1.9887,1.9916,1.9924,1.993,0,0,0,0,0,1.9451,1.9506,1.9501,1.9514,1.9582,1.9634,1.9642,1.9649,1.9629,1.9655,1.967,1.966,1.9759,1.9733,1.9745,1.9778,1.9877,1.9882,1.9886,1.9913,1.9922,1.993,0,0,0,0,0,0,1.9475,1.951,1.9505,1.9572,1.96,1.9631,1.9665,1.9659,1.9693,1.9689,1.9694,1.9702,1.9759,1.9774,1.9745,1.9842,1.9815,1.9822,1.9831,1.984,1.9846,1.9842,1.9721,0,0,0,0,0,1.9488,1.9528,1.9556,1.9613,1.9627,1.9643,1.9666,1.9668,1.9697,1.9709,1.9728,1.9756,1.9792,1.9817,1.9852,1.9918,1.9924,1.9946,1.9953,1.9959,1.9965,1.9998,2.0008,1.9904,1.9904,1.9904,0,0,1.9515,1.9539,1.9565,1.9618,1.964,1.968,1.9653,1.9698,1.9727,1.9715,1.977,1.9784,1.9815,1.9876,1.9903,1.989,1.9995,1.9965,1.9969,1.9972,2.0004,2.0014,2.0023,1.9907,1.9907,1.9906,0,0,1.9586,1.9609,1.9657,1.9679,1.9713,1.9723,1.9734,1.9766,1.9775,1.983,1.9822,1.9855,1.992,1.9941,1.9961,2.0036,2.0028,2.0047,2.0084,2.0116,2.0124,2.0132,2.0157,2.0166,2.0053,2.0053,2.0054,0,1.9615,1.9677,1.9683,1.9727,1.975,1.9741,1.9789,1.981,1.9853,1.9868,1.9853,1.9932,1.9952,2.0016,2.0034,2.0051,2.0063,2.0044,2.0123,2.013,2.0137,2.0161,2.0171,2.0056,2.0055,2.0055,2.0055,0,1.9711,1.9753,1.9788,1.983,1.9856,1.9902,1.9913,1.9939,1.9938,1.9949,2.0003,2.0027,2.0066,2.0081,2.0081,2.0145,2.0136,2.0122,2.0094,2.0149,2.0172,2.0181,2.0059,2.0058,2.0057,2.0057,0,0,1.98,1.9843,1.9855,1.9873,1.9908,1.994,1.9984,2.0023,2.0044,2.0073,2.0109,2.0163,2.0149,2.0171,2.0173,2.0201,2.0257,2.0183,2.0184,2.0195,2.0327,2.0337,2.0348,2.0252,2.0253,2.0255,2.0324,0,1.9872,1.9952,1.9957,2.0028,2.0066,2.0057,2.0095,2.012,2.013,2.0163,2.0174,2.0211,2.0191,2.0204,2.0232,2.0245,2.0284,2.024,2.0284,2.0285,2.0276,2.036,2.0372,2.0436,2.0333,2.0335,2.0336,0,1.9969,2.0,2.0075,2.0103,2.0119,2.0153,2.0188,2.0219,2.0246,2.0251,2.0275,2.0272,2.0315,2.0285,2.0344,2.0314,2.0332,2.034,2.0343,2.0347,2.0314,2.0366,2.0456,2.0466,2.035,2.0349,2.0348,0,2.0024,2.0086,2.0138,2.0154,2.0188,2.0212,2.0226,2.0251,2.0273,2.0303,2.0317,2.0351,2.0369,2.0394,2.04,2.0378,2.0458,2.0429,2.0462,2.0462,2.048,2.0478,2.0574,2.0492,2.0492,2.0492,2.0491,0,2.0105,2.0151,2.0164,2.0196,2.0246,2.025,2.0299,2.0312,2.0334,2.0367,2.0361,2.0391,2.0397,2.0428,2.0433,2.0479,2.0488,2.0492,2.0493,2.0493,2.0492,2.0504,2.05,2.0494,2.0494,2.0493,2.0493,0,2.0176,2.0187,2.0243,2.027,2.0277,2.0313,2.0335,2.0364,2.0373,2.0415,2.0425,2.0439,2.0475,2.0483,2.0527,2.0529,2.0584,2.0581,2.0576,2.0575,2.0607,2.0604,2.0714,2.0728,2.0637,2.0638,2.0639,0,2.0227,2.0262,2.0292,2.0314,2.033,2.0365,2.0387,2.0392,2.0415,2.0446,2.0472,2.0508,2.0536,2.0595,2.0608,2.064,2.0636,2.0673,2.0641,2.0639,2.0636,2.0633,2.0636,2.0679,2.068,2.068,2.0681,0,2.0315,2.0318,2.0351,2.0385,2.0411,2.0438,2.0464,2.0482,2.0489,2.0515,2.0552,2.0575,2.0618,2.0653,2.0685,2.0698,2.069,2.0691,2.07,2.07,2.0695,2.0697,2.0591,2.0688,2.0688,2.0687,2.0687,2.0686,2.0377,2.0407,2.0432,2.0468,2.0488,2.0511,2.054,2.0552,2.0583,2.0619,2.0619,2.066,2.0682,2.0724,2.074,2.077,2.0758,2.0772,2.0775,2.0778,2.0781,2.0691,2.0776,2.0775,2.0775,2.0775,2.0775,0,2.0464,2.048,2.0513,2.0548,2.0575,2.0566,2.0593,2.0616,2.0652,2.0674,2.0702,2.0744,2.0777,2.0792,2.0824,2.0845,2.0842,2.0853,2.0851,2.0854,2.079,2.0778,2.0855,2.0855,2.0855,2.0855,2.0855,2.0855,2.0513,2.0562,2.0568,2.0625,2.064,2.068,2.0695,2.0716,2.0734,2.078,2.0808,2.0817,2.0836,2.0869,2.0898,2.0901,2.0913,2.0926,2.0927,2.0867,2.0859,2.0851,2.084,2.0928,2.0928,2.0989,2.0989,2.099]}]]